[[{"header":{"parameterUnit":"m.s-1","parameterCategory":1,"la1":30.2991,"la2":30.254,"lo1":-89.0895,"lo2":-89.0444,"dy":0.0017,"dx":0.0017,"nx":28,"ny":28,"refTime":"2026-02-11T09:00:00:Z","depth":0,"parameterNumber":2,"parameterNumberName":"U-component_of_WINDS"},"data":[0,0,0,0,0,0,0,0,0,0,0,0,0,0,0,0,0,0,0,0,0,0,0,0,0,0,0,0,0,0,0,0,0,0,0,0,0,0,0,0,0,0,0,0,0,0,0,0,0,0,0,0,0,0,0,0,0,0,0.717,0.7169,0,0.7137,0.7137,0.7137,0.707,0.7069,0.7067,0.7066,0.7036,0.7036,0.7036,0,0,0,0,0,0,0,0,0,0,0,0,0,0.7176,0.7177,0.717,0.7169,0.7169,0.7137,0.7137,0.7137,0.707,0.7069,0.7067,0.7065,0.7035,0.7036,0.7036,0,0,0,0,0,0,0,0,0,0,0,0,0,0.7162,0.7177,0.717,0.7132,0.7128,0.7138,0.7137,0.7136,0.7071,0.7069,0.7067,0.7065,0.7035,0.7036,0.7037,0.7081,0,0,0.7039,0.7039,0,0,0,0,0,0,0,0,0.7163,0.7162,0.7138,0.7134,0.713,0.7106,0.7128,0.7118,0.7071,0.7093,0.7066,0.7064,0.7061,0.7059,0.7058,0.708,0.7078,0.7039,0.7039,0.7039,0.7039,0,0,0,0,0,0,0,0.7164,0.7163,0.7157,0.7138,0.7133,0.7117,0.7113,0.7126,0.7088,0.709,0.7086,0.7083,0.7058,0.7057,0.7056,0.7078,0.7039,0.7039,0.704,0.704,0.7135,0.7137,0,0,0,0,0,0,0.717,0.7164,0.7158,0.7156,0.7142,0.7119,0.7114,0.7116,0.7088,0.7082,0.7084,0.708,0.7057,0.7056,0.7055,0.7105,0.7039,0.704,0.704,0.7133,0.7136,0.7138,0,0,0,0,0,0,0.717,0.717,0.7159,0.7159,0.7156,0.7121,0.7123,0.7116,0.7115,0.7083,0.7077,0.709,0.7055,0.7054,0.7075,0.7103,0.704,0.7041,0.7131,0.7134,0.7137,0.7206,0,0,0,0,0,0,0.7171,0.7171,0.7186,0.7159,0.7156,0.7179,0.7125,0.7117,0.7116,0.7109,0.7087,0.7081,0.7054,0.7074,0.7076,0.7103,0.7041,0.7128,0.7132,0.7136,0.7201,0.7211,0.7219,0,0,0,0,0,0.7171,0.7207,0.7187,0.7187,0.7175,0.7181,0.7179,0.7146,0.7118,0.7134,0.7114,0.7082,0.71,0.7077,0.7078,0.7106,0.7126,0.7131,0.7135,0.7196,0.7209,0.7219,0,0,0,0,0,0,0.7239,0.7203,0.7181,0.7209,0.7198,0.7169,0.7188,0.716,0.7158,0.7152,0.7112,0.7107,0.7134,0.7122,0.7097,0.7148,0.7108,0.7113,0.7154,0.7165,0.7175,0.7176,0.7042,0,0,0,0,0,0.7257,0.7264,0.7233,0.7261,0.7256,0.7224,0.7225,0.72,0.7188,0.7183,0.7165,0.7155,0.7158,0.7161,0.7163,0.7199,0.7193,0.7219,0.7228,0.7236,0.7241,0.7259,0.727,0.7154,0.7154,0.7154,0,0,0.7295,0.7276,0.7283,0.7274,0.7262,0.7271,0.722,0.7231,0.7237,0.7185,0.7203,0.719,0.7176,0.7205,0.7217,0.7196,0.7272,0.7242,0.7249,0.7249,0.7266,0.7277,0.7286,0.7157,0.7156,0.7156,0,0,0.7367,0.7354,0.7376,0.7366,0.7349,0.7327,0.7333,0.7309,0.7297,0.7315,0.7276,0.7284,0.729,0.7282,0.7279,0.735,0.732,0.7352,0.7401,0.7419,0.7429,0.7437,0.7462,0.7471,0.7357,0.7357,0.7358,0,0.7416,0.7426,0.7391,0.7404,0.7402,0.7355,0.7377,0.7369,0.7355,0.7355,0.7332,0.734,0.7327,0.7353,0.7371,0.737,0.7376,0.7354,0.743,0.7438,0.7445,0.7468,0.7478,0.7361,0.7361,0.7361,0.736,0,0.7487,0.7495,0.7515,0.7501,0.7501,0.752,0.7487,0.7492,0.7468,0.7449,0.7468,0.7452,0.7449,0.7454,0.7431,0.7478,0.7465,0.7437,0.7396,0.746,0.7481,0.749,0.7367,0.7366,0.7364,0.7363,0,0,0.76,0.7567,0.7575,0.7568,0.7548,0.7553,0.757,0.7567,0.7572,0.7564,0.7577,0.7585,0.7558,0.7555,0.7531,0.7548,0.7605,0.7517,0.7516,0.7533,0.7655,0.7676,0.7687,0.7586,0.7587,0.7589,0.7656,0,0.7667,0.7692,0.7661,0.7693,0.77,0.7657,0.7671,0.7661,0.7644,0.7649,0.7631,0.7636,0.7601,0.7599,0.7614,0.7595,0.7629,0.759,0.7598,0.7598,0.7601,0.7698,0.7719,0.7783,0.7664,0.7665,0.7666,0,0.7748,0.7743,0.7776,0.7754,0.7756,0.7769,0.7764,0.7769,0.7757,0.7744,0.7741,0.7712,0.7728,0.7689,0.7711,0.7685,0.7687,0.7678,0.768,0.7678,0.7635,0.7698,0.7803,0.7813,0.7679,0.7678,0.7677,0,0.7826,0.7828,0.7848,0.7844,0.7819,0.7829,0.782,0.7805,0.7806,0.7802,0.7802,0.7801,0.78,0.78,0.7772,0.7747,0.7798,0.7756,0.7787,0.7788,0.7798,0.7798,0.7904,0.7802,0.7802,0.7801,0.7801,0,0.7903,0.7925,0.7883,0.7895,0.7918,0.7883,0.7908,0.7894,0.7882,0.7891,0.7854,0.7864,0.7827,0.7834,0.7813,0.7833,0.7834,0.7824,0.7818,0.7826,0.7827,0.7826,0.782,0.7804,0.7803,0.7803,0.7802,0,0.7993,0.7966,0.7985,0.796,0.7954,0.7972,0.7951,0.7962,0.7943,0.7956,0.7957,0.7928,0.7933,0.7906,0.7907,0.7893,0.7925,0.7912,0.7928,0.7924,0.7956,0.7953,0.8064,0.8077,0.7967,0.7968,0.7969,0,0.8044,0.8059,0.8036,0.8039,0.8031,0.8037,0.8037,0.8004,0.8006,0.7994,0.8007,0.8009,0.8009,0.802,0.8,0.8001,0.7987,0.8026,0.7987,0.7995,0.7987,0.7985,0.7987,0.8034,0.8035,0.8036,0.8037,0,0.8136,0.8122,0.8123,0.812,0.8121,0.8117,0.8111,0.8117,0.8081,0.8085,0.809,0.809,0.8091,0.8094,0.8091,0.8082,0.8054,0.805,0.8057,0.8065,0.8074,0.8069,0.7949,0.8047,0.8046,0.8045,0.8045,0.8044,0.8207,0.8219,0.8204,0.8207,0.8199,0.8195,0.8203,0.8186,0.8189,0.8187,0.8168,0.8177,0.8165,0.8158,0.8152,0.8159,0.814,0.8151,0.8153,0.8156,0.8161,0.8074,0.8158,0.8158,0.8158,0.8158,0.8157,0,0.8297,0.8285,0.8288,0.8281,0.8283,0.8257,0.8249,0.8253,0.8261,0.8252,0.8253,0.826,0.8263,0.8243,0.8244,0.8253,0.824,0.8255,0.8253,0.8251,0.8178,0.8171,0.8265,0.8265,0.8265,0.8265,0.8265,0.8265,0.8343,0.8362,0.8346,0.8361,0.835,0.8357,0.8355,0.8351,0.8344,0.8353,0.8355,0.8342,0.8329,0.8329,0.8331,0.8325,0.8327,0.8345,0.8335,0.8267,0.8256,0.8246,0.824,0.8346,0.8346,0.8408,0.8408,0.8409]},{"header":{"parameterUnit":"m.s-1","parameterCategory":1,"la1":30.2991,"la2":30.254,"lo1":-89.0895,"lo2":-89.0444,"dy":0.0017,"dx":0.0017,"nx":28,"ny":28,"refTime":"2026-02-11T09:00:00:Z","depth":0,"parameterNumber":3,"parameterNumberName":"V-component_of_WINDS"},"data":[0,0,0,0,0,0,0,0,0,0,0,0,0,0,0,0,0,0,0,0,0,0,0,0,0,0,0,0,0,0,0,0,0,0,0,0,0,0,0,0,0,0,0,0,0,0,0,0,0,0,0,0,0,0,0,0,0,0,0.2853,0.2853,0,0.2776,0.2775,0.2774,0.2753,0.2753,0.2754,0.2754,0.2667,0.2664,0.2662,0,0,0,0,0,0,0,0,0,0,0,0,0,0.2975,0.2973,0.2854,0.2853,0.2852,0.2776,0.2775,0.2774,0.2753,0.2753,0.2754,0.2754,0.2668,0.2665,0.2661,0,0,0,0,0,0,0,0,0,0,0,0,0,0.2912,0.2972,0.2854,0.2832,0.2829,0.2776,0.2775,0.2774,0.2752,0.2753,0.2754,0.2754,0.2669,0.2665,0.2661,0.2622,0,0,0.2648,0.2647,0,0,0,0,0,0,0,0,0.2916,0.2908,0.2836,0.2833,0.283,0.2775,0.2786,0.2723,0.2752,0.2781,0.2754,0.2755,0.2702,0.2695,0.2679,0.2618,0.2614,0.2648,0.2646,0.2644,0.2643,0,0,0,0,0,0,0,0.292,0.2911,0.2823,0.2835,0.2832,0.2824,0.2815,0.2774,0.2738,0.2779,0.2777,0.2769,0.27,0.2683,0.2677,0.2613,0.2648,0.2645,0.2642,0.264,0.2514,0.2513,0,0,0,0,0,0,0.293,0.2915,0.2825,0.282,0.2876,0.2821,0.2812,0.2792,0.2739,0.2732,0.2768,0.2768,0.269,0.2681,0.2673,0.2623,0.2644,0.264,0.2638,0.2515,0.2513,0.2512,0,0,0,0,0,0,0.2932,0.2922,0.2828,0.2867,0.2855,0.2818,0.2796,0.279,0.2773,0.2731,0.2724,0.2757,0.269,0.2679,0.2635,0.262,0.2638,0.2634,0.2516,0.2514,0.2513,0.2523,0,0,0,0,0,0,0.2936,0.2923,0.291,0.2867,0.2853,0.2793,0.2795,0.2788,0.2766,0.2765,0.2719,0.2712,0.2689,0.2641,0.2631,0.2614,0.2631,0.2517,0.2515,0.2513,0.2524,0.2522,0.252,0,0,0,0,0,0.294,0.2914,0.2909,0.2898,0.2836,0.2793,0.2784,0.2761,0.2765,0.275,0.2723,0.2713,0.2623,0.2637,0.2625,0.2607,0.2518,0.2515,0.2514,0.2524,0.2522,0.2521,0,0,0,0,0,0,0.2953,0.2908,0.2902,0.2862,0.2832,0.2789,0.277,0.276,0.2726,0.2726,0.2697,0.2687,0.2644,0.2621,0.2637,0.2565,0.257,0.2565,0.2582,0.258,0.2578,0.2584,0.2628,0,0,0,0,0,0.2952,0.2923,0.2884,0.2852,0.2838,0.2807,0.2787,0.2772,0.2738,0.2725,0.2695,0.266,0.2624,0.2601,0.2565,0.252,0.2509,0.2502,0.25,0.2499,0.2495,0.2468,0.2464,0.2506,0.2506,0.2506,0,0,0.2947,0.2919,0.2903,0.2854,0.2829,0.2798,0.2796,0.2763,0.2738,0.2719,0.2676,0.2652,0.2612,0.2567,0.2545,0.2546,0.2481,0.2497,0.2496,0.2493,0.2466,0.2462,0.2458,0.2504,0.2505,0.2505,0,0,0.2924,0.2901,0.2871,0.2846,0.2809,0.2788,0.2781,0.274,0.2725,0.2682,0.2666,0.2635,0.2574,0.2546,0.2523,0.2488,0.2477,0.2477,0.2469,0.2442,0.2439,0.2436,0.2422,0.2417,0.2474,0.2474,0.2474,0,0.2923,0.2877,0.2856,0.2824,0.2802,0.2786,0.2754,0.273,0.2682,0.2666,0.2669,0.2592,0.2563,0.2511,0.2502,0.2485,0.2474,0.2482,0.2442,0.2438,0.2435,0.2421,0.2416,0.2474,0.2474,0.2474,0.2474,0,0.2877,0.2845,0.2826,0.2782,0.2758,0.2726,0.2698,0.2676,0.2663,0.2641,0.2596,0.2562,0.2518,0.2505,0.2491,0.2449,0.2451,0.2448,0.2452,0.2432,0.2418,0.2413,0.2474,0.2474,0.2474,0.2474,0,0,0.2858,0.2805,0.2798,0.2777,0.2735,0.2709,0.2675,0.2635,0.2616,0.2583,0.2552,0.2501,0.2498,0.2472,0.2455,0.2432,0.2405,0.2431,0.243,0.2427,0.2355,0.2357,0.2351,0.2398,0.2397,0.2396,0.2358,0,0.2829,0.2771,0.2751,0.2702,0.2671,0.2655,0.2626,0.2595,0.2573,0.2542,0.2517,0.2481,0.248,0.2465,0.2442,0.2413,0.239,0.2416,0.2366,0.2365,0.2376,0.2344,0.2346,0.2312,0.2352,0.2352,0.2351,0,0.2786,0.2755,0.2704,0.2665,0.2651,0.2625,0.2586,0.2558,0.2522,0.2507,0.2479,0.2463,0.2425,0.2432,0.2377,0.2395,0.2373,0.2356,0.2354,0.2347,0.2356,0.2335,0.2301,0.2295,0.2343,0.2343,0.2344,0,0.2776,0.2721,0.2684,0.2667,0.262,0.2602,0.2582,0.2547,0.2524,0.2489,0.2473,0.2433,0.2411,0.2379,0.2352,0.236,0.2299,0.2304,0.2284,0.2284,0.227,0.2271,0.2231,0.2259,0.2259,0.2259,0.2259,0,0.2744,0.2713,0.2679,0.2655,0.2619,0.2595,0.2559,0.2537,0.2506,0.2476,0.2458,0.243,0.2397,0.2363,0.2341,0.2298,0.2288,0.2273,0.2268,0.2274,0.2276,0.2259,0.226,0.2258,0.2258,0.2258,0.2259,0,0.2727,0.2703,0.266,0.262,0.2609,0.2584,0.2549,0.2524,0.2502,0.2464,0.2453,0.2418,0.2377,0.2348,0.2295,0.228,0.2233,0.2228,0.2246,0.2243,0.2224,0.2225,0.2169,0.2159,0.2196,0.2196,0.2195,0,0.2707,0.2683,0.2641,0.2621,0.2602,0.2569,0.2546,0.2521,0.2497,0.2454,0.2433,0.2392,0.2358,0.2293,0.2261,0.222,0.2212,0.2196,0.2206,0.2213,0.221,0.2212,0.2208,0.2194,0.2193,0.2193,0.2193,0,0.2675,0.2664,0.2633,0.2598,0.2571,0.2541,0.2511,0.2495,0.2464,0.2437,0.2397,0.2371,0.2317,0.2275,0.2231,0.2206,0.2193,0.2191,0.2183,0.2189,0.22,0.2192,0.224,0.2191,0.2192,0.2192,0.2192,0.2192,0.2654,0.2632,0.2599,0.2565,0.254,0.2512,0.2486,0.2462,0.2429,0.2385,0.2372,0.2329,0.2292,0.2231,0.2206,0.2171,0.2171,0.2161,0.2158,0.2156,0.2155,0.2207,0.2163,0.2163,0.2163,0.2163,0.2163,0,0.262,0.2598,0.2567,0.2526,0.2498,0.2492,0.2457,0.2434,0.2398,0.2365,0.2332,0.2285,0.2244,0.2209,0.2166,0.2144,0.2137,0.2134,0.2134,0.2128,0.2158,0.2168,0.214,0.214,0.214,0.214,0.214,0.214,0.2599,0.256,0.2546,0.2493,0.2471,0.2431,0.2412,0.2385,0.2359,0.2308,0.2275,0.2254,0.2219,0.2173,0.2135,0.2125,0.2109,0.2107,0.2096,0.2124,0.2127,0.2129,0.2138,0.2104,0.2104,0.2069,0.2068,0.2068]}]]